Location: ?????????
(53.2086°N, 54.0693°E)
Time: 00:04:07
(UTC+00:00)

Cosmos 2026 Rocket - Pass Details

Date: 08 December 2019
Orbit: 940 x 1000 km, 82.9° (Epoch: 17 January)

Event Time Altitude Azimuth Distance (km) Brightness Sun altitude
Rises 15:23:34 0° 198° (SSW) 3,599 7.2 -28.1°
Reaches altitude 10° 15:26:05 10° 201° (SSW) 2,655 6.5 -28.5°
Maximum altitude 15:32:06 66° 284° (WNW) 1,026 4.2 -29.4°
Enters shadow 15:36:39 18° 3° (N) 2,125 5.7 -30.1°
